Hourly Data Report for October 08, 2016

All times are specified in Local Standard Time (LST). Add 1 hour to adjust for Daylight Saving Time where and when it is observed.

EUREKA CLIMATE
NUNAVUT

79°59'21.000" N
85°56'02.000" W
10.00 m
2401199
71613
NEK

Download Data

Hourly Data (October 2016)
Hourly Data Report for October 8, 2016
Temp Definition
°C
Dew Point Temp Definition
°C
Rel Hum Definition
%
Wind Dir Definition
10's deg

Wind Spd Definition
km/h
Visibility Definition
km
Stn Press Definition
kPa
Hmdx Definition


Wind Chill Definition


Weather Definition


TIME
00:00 -4.8 -6.2 90 16 25   100.95   -12 LegendNANA
01:00 -4.9 -6.1 91 16 33   100.93   -13 LegendNANA
02:00 -4.6 -5.7 92 16 33   100.97   -13 LegendNANA
03:00 -4.5 -5.6 92 15 30   100.99   -12 LegendNANA
04:00 -4.8 -5.8 92 16 32   101.02   -13 LegendNANA
05:00 -4.7 -5.7 93 14 29   101.08   -12 LegendNANA
06:00 -4.5 -5.5 93 14 27   101.08   -12 LegendNANA
07:00 -4.5 -5.6 92 17 25   101.08   -12 LegendNANA
08:00 -4.7 -5.9 92 16 26   101.09   -12 LegendNANA
09:00 -5.1 -6.4 90 16 25   101.10   -12 LegendNANA
10:00 -5.5 -6.5 93 14 21   101.09   -12 LegendNANA
11:00 -6.7 -8.2 90 11 16   101.11   -13 LegendNANA
12:00 -6.1 -7.7 88 12 21   101.10   -13 LegendNANA
13:00 -6.5 -8.0 89 13 19   101.12   -13 LegendNANA
14:00 -5.9 -7.5 88 13 14   101.11   -11 LegendNANA
15:00 -5.8 -7.2 90 12 10   101.11   -10 LegendNANA
16:00 -6.4 -7.9 89 13 4   101.11   -8 LegendNANA
17:00 -7.4 -8.5 92 26 3   101.09   -9 LegendNANA
18:00 -9.7 -10.9 91 1 9   101.07   -15 LegendNANA
19:00 -8.4 -9.6 91 32 4   101.06   -11 LegendNANA
20:00 -7.9 -9.6 88 3 11   101.02   -13 LegendNANA
21:00 -9.7 -10.7 92 6 6   100.98   -13 LegendNANA
22:00 -11.3 -13.0 87 1 9   100.96   -16 LegendNANA
23:00 -14.0 -15.5 88 2 11   100.95   -20 LegendNANA

Notes on Data Quality.

Legend

  • E = Estimated
  • M = Missing
  • NA = Not Available
  • ‡ = Partner data that is not subject to review by the National Climate Archives
Date modified: